星链-32247 (STARLINK-32247)

导读

STARLINK-32247是美国SpaceX公司于2024年8月12日发射的星链第二代低轨卫星,隶属于Starlink全球卫星互联网星座。星链星座旨在为全球缺乏传统网络基础设施的偏远地区提供高速低延迟宽带服务。该卫星采用第二代相控阵技术与数字处理,优化频谱利用效率,设计寿命约5年,助力SpaceX持续扩展星座覆盖与网络容量,推动全球互联覆盖能力提升。

Basic Information
目录编号:
60446
目录名称:
STARLINK-32247
国际标识:
2024-144X
轨道中心:
EARTH
卫星名称:
星链-32247 (STARLINK-32247)
卫星全名:
星链-32247 (STARLINK-32247)
卫星状态:
在轨 (已飞行760 天)
发射日期:
2024-08-12 UTC
国别 :
美国 (US)
星等 :
--
This satellite is enrolled in the Space Conjunction Data Service (SCDS) and the current flight risk assessment level is: No High Risk
Orbit Information
数据来源 国际轨道数据 AOE轨道数据
星历时间 2026-09-11T18:31:12+0800
9小时前
查看轨道信息
2026-09-07T03:00:00+0800
5天前
查看轨道信息
半长轴 6839.601km 6840.87km
偏心率 0.0000878 0.0001027
轨道倾角 53.161° 53.161°
近地点辐角 66.247° 93.483°
升交点赤经 61.750° 83.485°
平近点角 293.862° 140.103°
近地点 460.863km 462.03km
远地点 462.065km 463.436km
周期 93.822分钟 93.848分钟
每日圈数 15.348172 15.343903
Detailed Information
卫星平台:
Starlink v2.0 mini
运营商:
太空探索技术公司
运营商所在国:
美国
制造商(研发单位):
太空探索技术公司
制造商所在国:
美国
使用方式:
暂无
Satellite Introduction
星链(Starlink)计划是由太空探索技术公司(SpaceX)提出的一个巨型低轨卫星互联网星座项目,计划在2019年至2024年间在太空搭建由约1.2万颗卫星组成的“星链”网络,其中1584颗将部署在地球上空550千米处的近地轨道,并从2020年开始工作。该卫星仍在工作。
2D Orbit Map
3D Orbit Map
Orbit Altitude Analysis Chart
Orbit Inclination Analysis Chart
Orbit Comprehensive Analysis Chart
View Comprehensive Chart
Conjunction Data List
Event ID Objects TCA Miss Dist (km) Collision Risk Probability Collision Risk Index (CRI) Action
CDM_260914-025306-044606-344721
2026-09-14T
02:53:52+0000
0.902 km
远距离
2.147298E-5 中风险 0.62
CDM_260911-190305-877206-044622
2026-09-11T
19:03:57+0000
1.241 km
极远距离
1.113666E-5 中风险 0.56
CDM_260913-021506-044606-947021
2026-09-13T
02:15:20+0000
1.364 km
极远距离
7.850684E-6 低风险 0.53
CDM_260911-203805-877306-044622
2026-09-11T
20:38:10+0000
1.433 km
极远距离
6.830142E-6 低风险 0.52
CDM_260912-192905-247706-044622
2026-09-12T
19:29:14+0000
1.440 km
极远距离
6.407638E-6 低风险 0.51
CDM_260913-120506-044606-537121
2026-09-13T
12:05:21+0000
1.233 km
极远距离
5.287617E-6 低风险 0.49
CDM_260911-211906-044606-490622
2026-09-11T
21:19:12+0000
1.551 km
极远距离
5.049082E-6 低风险 0.49
CDM_260912-020505-877206-044622
2026-09-12T
02:05:58+0000
1.635 km
极远距离
4.455911E-6 低风险 0.48
CDM_260911-210806-044606-817321
2026-09-11T
21:08:58+0000
1.591 km
极远距离
3.040282E-6 低风险 0.45
CDM_260913-091706-044606-947021
2026-09-13T
09:17:21+0000
1.945 km
极远距离
2.65124E-6 低风险 0.43
Miss Distance Evolution Trend with All Objects
Collision Probability Evolution Trend with All Objects